www.pogodaiklimat.ru
Время
(UTC), дата
13 12.02
14 12.02
15 12.02
16 12.02
17 12.02
18 12.02
19 12.02
20 12.02
21 12.02
22 12.02
23 12.02
00 13.02
01 13.02
02 13.02
03 13.02
04 13.02
05 13.02
06 13.02
07 13.02
08 13.02
09 13.02
10 13.02
11 13.02
12 13.02
13 13.02
14 13.02
15 13.02
16 13.02
17 13.02
18 13.02
19 13.02
20 13.02
21 13.02
22 13.02
23 13.02
00 14.02
01 14.02
02 14.02
03 14.02
04 14.02
05 14.02
06 14.02
07 14.02
08 14.02
09 14.02
10 14.02
11 14.02
12 14.02
13 14.02
14 14.02
15 14.02
16 14.02
17 14.02
18 14.02
19 14.02
20 14.02
21 14.02
22 14.02
23 14.02
00 15.02
01 15.02
02 15.02
03 15.02
04 15.02
05 15.02
06 15.02
07 15.02
08 15.02
09 15.02
10 15.02
11 15.02
12 15.02
13 15.02
14 15.02
15 15.02
16 15.02
17 15.02
18 15.02
19 15.02
20 15.02
21 15.02
22 15.02
23 15.02
00 16.02
01 16.02
02 16.02
03 16.02
04 16.02
05 16.02
06 16.02
07 16.02
08 16.02
09 16.02
10 16.02
11 16.02
12 16.02
13 16.02
14 16.02
15 16.02
16 16.02
17 16.02
18 16.02
19 16.02
20 16.02
21 16.02
22 16.02
23 16.02
00 17.02
01 17.02
02 17.02
03 17.02
04 17.02
05 17.02
06 17.02
07 17.02
08 17.02
09 17.02
10 17.02
11 17.02
12 17.02
13 17.02
14 17.02
15 17.02
16 17.02
17 17.02
18 17.02
19 17.02
20 17.02
21 17.02
22 17.02
23 17.02
00 18.02
01 18.02
02 18.02
03 18.02
04 18.02
05 18.02
06 18.02
07 18.02
08 18.02
09 18.02
10 18.02
11 18.02
12 18.02
13 18.02
14 18.02
15 18.02
16 18.02
17 18.02
18 18.02
19 18.02
20 18.02
21 18.02
22 18.02
23 18.02
00 19.02
01 19.02
02 19.02
03 19.02
04 19.02
05 19.02
06 19.02
07 19.02
08 19.02
09 19.02
11 19.02
12 19.02
Ветер
(напр.,м/с)
Видим. Явления Облачность Т
(С)
Тd
(С)
f
(%)
Тe
(С)
Тes
(С)
Комфортность P
(гПа)
Po
(гПа)
Тmin
(С)
Tmax
(С)
R
(мм)
R24
(мм)
S
(см)
З 10 40 км 4/4 900 м
[Cb cap]
+6.2 -0.9 60 +1 +1 тепло 1008.5 1001.2
З 12 12 км в посл. час ливневой снег 8/6 240 м
[Cb cap Ac trans]
+3.0 +1.2 88 -5 -5 по сезону 1009.5 1002.1
З 9 20 км слаб. ливневой дождь 4/3 300 м
[Cb cap Ac cuf]
+3.7 +1.1 83 -3 -3 по сезону 1010.2 1002.8 0.2
З 10 35 км слаб. ливневой дождь 6/5 300 м
[Cb cap Ac cuf]
+3.9 +0.4 78 -3 -3 по сезону 1010.6 1003.2
З 6-9
{14}
30 км в посл. час ливневой дождь 4/4 1050 м
[Cu med, cong]
+3.5 +0.4 80 -2 -2 тепло 1011.5 1004.1
З 7 30 км {ливн. осадки} 6/6 1000 м
[Cu Sc]
+4.4 -0.6 70 -1 -1 по сезону 1012.4 1005.0 +2.5 +6.3 0.1
З 6-10
{11}
30 км 4/4 1050 м
[Cu Sc]
+3.9 -0.9 71 -1 -1 тепло 1012.8 1005.4
З 7-10
{10}
30 км 3/3 1050 м
[Sc]
+3.9 -1.2 69 -2 -2 тепло 1013.0 1005.6
З 6-11
{11}
40 км ясно +3.4 -0.9 73 -2 -2 по сезону 1013.3 1005.9
З 6-10
{11}
40 км 3/3 1500 м
[Sc]
+3.1 -0.7 76 -2 -2 тепло 1013.6 1006.2
З 5-9
{11}
40 км ясно +3.0 -0.5 78 -2 -2 тепло 1013.9 1006.5
З 7 40 км ясно +3.1 -0.6 77 -3 -3 по сезону 1014.2 1006.8
ЮЗ 5-8
{10}
40 км ясно +2.9 -0.7 77 -2 -2 тепло 1014.3 1006.9
ЮЗ 3-5
{7}
40 км 3/3 1500 м
[Sc]
+2.3 -1.0 79 -2 -2 тепло 1014.1 1006.7
ЮЗ 4 40 км 1/1 1500 м
[Sc]
+2.1 -1.1 79 -3 -3 по сезону 1013.8 1006.4
ЮЗ 4-6
{7}
35 км 1/1 1500 м
[Sc]
+2.3 -0.6 81 -3 -3 тепло 1013.4 1006.0
Ю 4-5
{6}
35 км 4/4 1500 м
[Sc]
+2.1 -0.3 84 -3 -3 тепло 1013.2 1005.8
Ю 4 30 км 6/3 1000 м
[Sc Ci fib]
+2.4 -0.1 84 -2 -2 по сезону 1012.5 1005.1 +1.8 +4.4
Ю 5 30 км осадки на расстоянии 9/1 1260 м
[Sc Ac und Cs]
+2.3 -0.2 84 -3 -3 тепло 1011.7 1004.3
Ю 6 35 км осадки на расстоянии 10/3 1260 м
[Sc Ac As Cs]
+2.6 -0.3 81 -3 -3 тепло 1010.7 1003.3
Ю 7 40 км осадки на расстоянии 10/0
[Ac As]
+3.0 -0.2 79 -3 -3 по сезону 1009.7 1002.3
Ю 7 40 км осадки на расстоянии 10/1 1500 м
[Sc Ac As]
+3.5 +0.3 80 -2 -2 тепло 1008.6 1001.2
Ю 8 40 км осадки на расстоянии 10/1 900 м
[Sc As op]
+4.0 +0.5 78 -2 -2 тепло 1007.4 1000.1
Ю 8 9000 м слаб. дождь 10/4 540 м
[Sc As op]
+3.4 +1.5 87 -3 -3 по сезону 1005.9 998.6 0.2
ЮВ 8 9000 м дождь 10/8 1200 м
[Sc As op]
+3.3 +1.9 91 -3 -3 по сезону 1004.2 996.9
ЮВ 9 9000 м дождь 10/8 400 м
[Sc As op]
+3.3 +2.0 91 -4 -4 тепло 1001.7 994.4
ЮВ 8 15 км слаб. дождь 9/9 330 м
[Sc]
+3.7 +2.2 90 -3 -3 по сезону 1000.3 993.0 4
Ю 8 30 км слаб. дождь 10/9 400 м
[Sc]
+3.8 +2.2 89 -3 -3 по сезону 999.6 992.3
Ю 5 45 км в посл. час дождь 9/9 500 м
[Sc Ac As]
+3.9 +2.3 89 -1 -1 тепло 999.6 992.3
Ю 2 45 км {дождь} 9/8 600 м
[Sc Ac trans]
+3.8 +2.2 89 +1 +1 по сезону 999.9 992.6 +1.9 +4.0 0.5
Ю 4 45 км 9/9 1110 м
[Sc]
+3.8 +2.1 89 -1 -1 тепло 1000.2 992.9
Ю 3-5
{6}
45 км 9/9 1500 м
[Sc]
+4.1 +1.9 86 0 0 тепло 1000.6 993.3
Ю 3 40 км 8/8 1500 м
[Sc]
+3.5 +1.8 89 -0 -0 по сезону 1001.2 993.9
Ю 2 35 км в посл. час ливневой дождь 9/9 960 м
[Cu Sc]
+4.1 +2.4 89 +1 +1 тепло 1002.0 994.7
Ю 2 35 км в посл. час ливневой дождь 9/9 540 м
[Cu Sc]
+4.5 +2.8 89 +2 +2 тепло 1002.9 995.6
ЮЗ 1 35 км в посл. час ливневой дождь 10/9 600 м
[Sc]
+4.7 +2.9 88 +3 +3 тепло 1003.9 996.6 0.0
ЮЗ 1 12 км слаб. ливневой дождь 10/9 480 м
[Cu Sc]
+4.6 +3.3 91 +3 +3 тепло 1005.0 997.7
З 3-4
{4}
25 км в посл. час ливневой дождь 10/9 450 м
[Sc]
+5.3 +4.3 93 +2 +2 тепло 1006.1 998.8
З 3 5000 м слаб. дождь 10/9 210 м
[Frnb]
+5.2 +4.9 98 +2 +2 тепло 1007.2 999.9 0.6
З 4-5
{5}
5000 м дождь 10/9 180 м
[Frnb]
+5.4 +5.0 97 +1 +1 тепло 1008.4 1001.1
З 4-6
{6}
4000 м слаб. дождь 10/9 120 м
[Frnb]
+5.4 +5.2 99 +1 +1 тепло 1009.8 1002.5
З 4 3200 м слаб. дождь 10/9 100 м
[Frnb]
+5.5 +5.4 99 +1 +1 тепло 1011.2 1003.9 +3.4 +5.6 0.9
З 4 4800 м слаб. дождь 9/9 180 м
[Sc]
+5.4 +5.1 98 +1 +1 тепло 1012.9 1005.6
З 3-5
{8}
8000 м в посл. час дождь 9/9 210 м
[St]
+5.6 +5.0 96 +2 +2 тепло 1014.3 1007.0
З 4 10 км {дождь} 9/9 240 м
[St]
+6.2 +5.2 93 +2 +2 тепло 1015.4 1008.1 0.2
З 5 15 км в посл. час дождь 9/9 300 м
[Sc]
+6.7 +5.0 89 +2 +3 тепло 1016.6 1009.3
З 6 12 км в посл. час дождь 9/9 400 м
[Cu Sc]
+6.9 +5.3 90 +2 +3 тепло 1018.0 1010.7
З 6 15 км в посл. час дождь 8/8 400 м
[Cu Sc Ac trans Ci fib]
+7.0 +4.7 85 +3 +3 по сезону 1018.5 1011.2 0.0
З 6 14 км 9/9 450 м
[Cu Sc]
+7.3 +4.9 85 +3 +3 тепло 1019.0 1011.7
З 6 30 км 9/9 450 м
[Cu Sc]
+7.2 +3.8 79 +3 +3 тепло 1019.8 1012.5
СЗ 5 28 км 9/9 570 м
[Cu Sc]
+7.0 +3.5 78 +3 +3 тепло 1020.6 1013.3
СЗ 3 30 км 9/9 630 м
[Cu Sc]
+6.4 +3.4 81 +3 +3 тепло 1021.4 1014.0
СЗ 1 25 км 9/9 660 м
[Cu Sc]
+5.7 +3.3 85 +5 +5 тепло 1021.9 1014.5
З 1 20 км 9/9 600 м
[Sc]
+5.3 +3.4 88 +4 +4 тепло 1022.9 1015.5 +5.1 +8.2
Ю 2-2
{2}
20 км 9/9 570 м
[Sc]
+6.0 +3.5 84 +4 +4 тепло 1023.3 1015.9
ЮЗ 4 23 км 9/9 540 м
[Sc]
+6.3 +4.0 85 +3 +3 тепло 1023.7 1016.3
ЮЗ 4 30 км 9/9 540 м
[Sc]
+6.3 +2.3 76 +3 +3 тепло 1024.2 1016.8
Ю 4-5
{6}
30 км 9/9 870 м
[Sc]
+6.3 +2.2 75 +3 +3 тепло 1023.7 1016.3
Ю 3-4
{6}
28 км 9/9 900 м
[Sc]
+5.7 +2.0 77 +3 +3 тепло 1023.4 1016.0
Ю 5 30 км 4/4 600 м
[Sc]
+5.4 +1.9 78 +1 +1 тепло 1023.0 1015.6
Ю 4-5
{7}
30 км 3/3 960 м
[Sc]
+4.6 +1.7 81 0 0 тепло 1022.8 1015.4
Ю 3-4
{5}
30 км 1/1 900 м
[Sc]
+4.2 +1.6 83 +1 +1 тепло 1022.3 1014.9
Ю 5 35 км 1/1 840 м
[Sc]
+4.2 +1.5 83 -1 -1 по сезону 1021.5 1014.1
Ю 5 40 км 8/1 630 м
[Sc Ac trans]
+4.6 +1.8 82 -0 -0 тепло 1021.0 1013.6
Ю 4-5
{7}
45 км 9/0
[Ac trans]
+5.9 +2.3 78 +2 +2 тепло 1020.5 1013.1
Ю 5 40 км 10/0
[As trans]
+5.9 +2.4 78 +2 +2 тепло 1020.3 1012.9 +3.7 +6.7
Ю 4 35 км 10/0
[Ac As]
+5.9 +2.6 79 +2 +2 тепло 1020.5 1013.1
Ю 5 40 км 10/0
[Ac As]
+6.6 +2.9 77 +3 +3 тепло 1020.3 1012.9
Ю 5 40 км 9/1 2000 м
[Sc Ac As]
+7.2 +3.4 77 +3 +4 тепло 1019.9 1012.6
Ю 6 40 км 9/0
[Ac As Ci sp]
+8.0 +3.9 75 +4 +5 тепло 1019.3 1012.0
Ю 7 35 км 8/1 600 м
[Cu hum Ac trans Ci sp]
+9.6 +4.5 70 +6 +6 тепло 1018.9 1011.6
Ю 8 35 км 8/1 600 м
[Cu hum Ac As Ci sp]
+10.1 +4.7 69 +6 +7 тепло 1017.8 1010.6
Ю 7 35 км 9/0
[Ac trans Ci sp]
+11.7 +5.1 64 +9 +9 тепло 1017.0 1009.8
Ю 9 35 км 9/0
[Ac trans Ci sp]
+11.5 +3.6 58 +8 +8 тепло 1016.2 1009.0
Ю 7 35 км 9/0
[Ac trans Ci sp]
+11.6 +4.5 62 +9 +9 тепло 1016.4 1009.2
Ю 7 35 км 9/0
[Ac As Ci sp]
+10.5 +4.4 66 +7 +7 тепло 1015.6 1008.4
Ю 5 35 км 9/0
[Ac As Ci sp]
+9.8 +4.0 67 +7 +7 тепло 1014.8 1007.6
Ю 7 35 км 9/0
[Ac trans Ci sp]
+9.6 +4.0 68 +6 +6 тепло 1014.5 1007.3 +5.6 +11.8
Ю 9 35 км 9/0
[Ac trans Ci sp]
+9.2 +3.7 68 +5 +5 тепло 1013.6 1006.4
Ю 7-9
{13}
45 км 9/0
[As trans]
+9.3 +3.5 67 +6 +6 тепло 1013.1 1005.9
Ю 10 45 км 10/0
[As trans]
+9.6 +3.6 66 +5 +5 тепло 1012.3 1005.1
Ю 9-13
{14}
45 км 10/0
[As op]
+10.0 +3.3 63 +6 +6 тепло 1011.6 1004.4
Ю 10 45 км 9/0
[Ac trans Ci sp]
+9.9 +3.4 64 +6 +6 тепло 1010.0 1002.8
Ю 11 45 км 10/0
[Ac As]
+10.6 +3.6 62 +6 +6 тепло 1009.1 1001.9
ЮЗ 7 45 км 10/3 1500 м
[Sc As trans]
+11.5 +4.2 61 +9 +9 тепло 1009.1 1002.0
ЮЗ 8 45 км 9/5 1350 м
[Sc As trans]
+11.5 +4.5 62 +8 +8 тепло 1008.3 1001.2
Ю 8 45 км 10/3 1050 м
[Sc As trans]
+11.7 +4.9 63 +9 +9 тепло 1007.8 1000.7
Ю 9 45 км 10/4 1050 м
[Sc As op]
+11.5 +5.1 65 +8 +8 тепло 1007.1 1000.0
Ю 10-13
{13}
45 км 10/3 1020 м
[Sc As trans]
+11.3 +5.1 66 +8 +8 тепло 1005.9 998.8
Ю 9 45 км в посл. час дождь 10/1 600 м
[Sc Ac As]
+11.6 +5.5 66 +8 +8 тепло 1005.7 998.6 +9.0 +11.9 0.0
Ю 9 15 км слаб. дождь 10/3 960 м
[Sc As op]
+11.4 +7.0 74 +8 +8 тепло 1005.1 998.0
Ю 10 40 км в посл. час дождь 10/3 960 м
[Sc As op]
+10.8 +7.8 82 +7 +7 тепло 1004.2 997.1
Ю 11 40 км в посл. час дождь 10/9 900 м
[Cu Sc]
+11.7 +7.9 77 +8 +8 тепло 1004.1 997.0 0.2
ЮЗ 8 40 км в посл. час дождь 10/9 900 м
[Cu Sc]
+13.2 +8.3 72 +10 +10 тепло 1003.8 996.7
ЮЗ 10 40 км 10/6 900 м
[Cu Sc As op]
+14.9 +7.9 63 +13 +13 тепло 1002.7 995.7
ЮЗ 10 45 км {дождь} 9/9 900 м
[Sc]
+15.8 +7.5 58 +14 +14 тепло 1002.3 995.3 0.0
ЮЗ 9-15
{21}
45 км 9/9 1350 м
[Sc]
+16.5 +7.5 55 +15 +15 тепло 1001.6 994.6
ЮЗ 10 45 км 9/9 1410 м
[Sc]
+16.5 +7.7 56 +15 +15 тепло 1000.8 993.8
Ю 9 45 км 9/9 1380 м
[Sc]
+15.5 +7.8 60 +14 +14 тепло 999.9 992.9
Ю 10-17
{18}
45 км 9/9 1410 м
[Sc]
+16.8 +7.6 55 +15 +15 тепло 998.6 991.7
ЮЗ 9-16
{18}
45 км 9/9 1500 м
[Sc]
+17.4 +7.9 54 +16 +16 тепло 998.1 991.2
ЮЗ 11 45 км 9/9 1500 м
[Sc]
+17.6 +6.5 48 +16 +16 тепло 997.0 990.1 +10.8 +17.8
ЮЗ 13 55 км 9/9 1500 м
[Cu Sc]
+17.7 +6.2 47 +16 +16 тепло 996.2 989.3
ЮЗ 13-20
{21}
30 км 10/9 1500 м
[Sc]
+17.7 +6.6 48 +16 +16 тепло 996.5 989.6
З 11 25 км слаб. дождь 10/5 500 м
[Cu med, cong As op]
+9.4 +7.6 89 +4 +4 тепло 1002.0 994.9 0.6
З 8 14 км дождь 10/6 450 м
[Cu Sc As op]
+8.6 +6.9 89 +4 +4 тепло 1003.9 996.7
ЮЗ 9 15 км слаб. дождь 10/5 570 м
[Cu Sc As op]
+8.2 +5.8 85 +3 +3 тепло 1005.0 997.8
ЮЗ 9 15 км слаб. дождь 10/3 600 м
[Frnb As op]
+8.0 +5.3 83 +3 +3 тепло 1005.6 998.4 3
ЮЗ 7 50 км в посл. час дождь 10/9 750 м
[Cu Sc]
+8.1 +5.0 81 +4 +4 тепло 1005.7 998.5
ЮЗ 8 40 км в посл. час дождь 9/6 750 м
[Cu Sc Ac As]
+8.3 +5.0 80 +4 +4 тепло 1006.5 999.3
ЮЗ 9 45 км в посл. час дождь 9/4 840 м
[Cu hum Ac As]
+8.6 +4.0 73 +4 +4 тепло 1007.3 1000.1 0.2
ЮЗ 7 50 км 9/5 1020 м
[Cu Sc Ac trans]
+8.5 +3.4 70 +4 +4 тепло 1008.0 1000.8
ЮЗ 9-14
{17}
40 км 4/4 1080 м
[Cu hum]
+8.4 +2.5 66 +4 +4 тепло 1009.4 1002.2
ЮЗ 8 40 км {дождь} 6/4 1000 м
[Cu hum Ci sp]
+8.2 +2.2 66 +4 +4 тепло 1010.1 1002.9 +7.7 +18.2 3
ЮЗ 8-11
{14}
35 км 8/0
[Ci sp]
+7.6 +1.5 65 +3 +3 тепло 1011.1 1003.8
ЮЗ 6-10
{13}
35 км 8/0
[Ci sp]
+7.6 +0.7 62 +4 +4 тепло 1011.8 1004.5
ЮЗ 8 35 км 8/0
[Ci sp]
+7.8 +0.8 61 +3 +4 тепло 1012.0 1004.7
ЮЗ 8 35 км 8/1 900 м
[Cu hum Ci sp]
+8.4 +2.2 65 +4 +5 тепло 1012.1 1004.9
ЮЗ 8 35 км 6/1 1110 м
[Cu hum Ci sp]
+9.4 +2.7 63 +5 +6 тепло 1011.8 1004.6
ЮЗ 10 35 км 6/3 1110 м
[Cu hum Ci sp]
+9.8 +1.7 57 +6 +6 тепло 1011.2 1004.0
ЮЗ 8 35 км 8/5 1200 м
[Cu med, cong Ci sp]
+9.9 +1.9 57 +6 +7 тепло 1011.3 1004.1
ЮЗ 7-11
{13}
35 км 6/5 1320 м
[Cu med, cong Ci sp]
+10.0 +2.2 58 +7 +7 тепло 1011.1 1003.9
ЮЗ 7 35 км 6/1 1350 м
[Cu Sc Ci sp]
+10.1 +1.4 55 +7 +7 тепло 1010.7 1003.5
ЮЗ 6 35 км 6/4 1350 м
[Cu Sc Ac cuf Ci ing]
+9.6 +1.0 55 +6 +6 тепло 1010.3 1003.1
З 8 15 км ливневой дождь 9/8 660 м
[Cb cap Ac cuf]
+6.4 +3.1 79 +1 +1 тепло 1012.1 1004.8
ЮЗ 5 40 км в посл. час ливневой дождь 5/0
[Ac trans Ci sp]
+5.6 +3.8 88 +1 +1 по сезону 1012.2 1004.9 +5.6 +10.6 2
ЮЗ 5-7
{7}
45 км 5/5 1140 м
[Sc]
+6.2 +3.7 84 +2 +2 тепло 1012.7 1005.4
ЮЗ 5-8
{10}
45 км 8/8 1440 м
[Sc]
+6.8 +3.2 78 +3 +3 тепло 1012.4 1005.1
ЮЗ 7 45 км в посл. час ливневой дождь 9/9 800 м
[Cu med, cong]
+7.3 +3.3 76 +3 +3 тепло 1012.8 1005.5 0.0
ЮЗ 7 45 км в посл. час ливневой дождь 8/8 660 м
[Cu Sc]
+6.9 +3.6 79 +2 +2 тепло 1013.0 1005.7
ЮЗ 7 30 км слаб. ливневой дождь 9/9 660 м
[Cu Sc]
+6.7 +3.9 82 +2 +2 тепло 1013.2 1005.9
ЮЗ 6 40 км в посл. час ливневой дождь 9/9 300 м
[Cb calv]
+6.4 +3.7 83 +2 +2 тепло 1013.4 1006.1 0.0
З 8 20 км слаб. ливневой дождь 9/5 540 м
[Cb cap Ac As]
+6.3 +3.3 81 +1 +1 тепло 1014.2 1006.9
ЮЗ 6 45 км в посл. час ливневой дождь 9/9 400 м
[Cb calv]
+6.0 +4.3 89 +1 +1 тепло 1014.6 1007.3
З 6 40 км в посл. час ливневой дождь 9/9 400 м
[Cu Sc]
+6.2 +4.2 87 +1 +1 тепло 1014.9 1007.6 0.5
ЮЗ 6 30 км 9/9 480 м
[Sc]
+6.4 +4.3 86 +2 +2 тепло 1015.2 1007.9
З 6 30 км в посл. час ливневой дождь 9/9 450 м
[Cb cap]
+6.4 +4.4 87 +2 +2 тепло 1015.3 1008.0
ЮЗ 5 30 км в посл. час ливневой дождь 9/5 300 м
[Cb cap Ac trans Ci ing]
+4.8 +2.9 87 0 0 по сезону 1016.4 1009.0 +4.8 +7.4 3
ЮЗ 6-9
{10}
35 км в посл. час ливневой дождь 6/3 660 м
[Cb cap Ac cuf Ci ing]
+4.6 +2.5 86 -1 -1 тепло 1017.1 1009.7
ЮЗ 8 35 км в посл. час ливневой дождь 8/8 600 м
[Cb cap]
+5.4 +2.5 82 -0 -0 тепло 1017.9 1010.5
З 7 35 км в посл. час ливневой дождь 5/4 540 м
[Cb cap Ac trans]
+5.6 +2.2 79 0 +1 по сезону 1018.5 1011.1 0.0
З 9 35 км 8/8 750 м
[Cu Sc]
+6.5 +1.8 72 +1 +1 тепло 1018.9 1011.6
ЮЗ 8 35 км 8/8 840 м
[Cu Sc]
+6.8 +1.5 69 +2 +2 тепло 1019.1 1011.8
З 7 35 км {ливн. осадки} 8/8 900 м
[Cu Sc]
+7.7 +1.1 63 +3 +4 тепло 1018.8 1011.5
З 8-12
{16}
40 км 9/9 1170 м
[Sc]
+7.8 +1.1 63 +3 +3 тепло 1018.6 1011.3
ЮЗ 8 40 км в посл. час ливневой дождь 5/3 720 м
[Cu Sc Ci fib]
+7.7 +2.4 69 +3 +3 тепло 1018.6 1011.3
ЮЗ 10 40 км в посл. час ливневой дождь 9/5 1080 м
[Cu med, cong Ac trans]
+7.8 +1.6 65 +3 +3 тепло 1018.1 1010.8 0.0
З 5-8
{13}
40 км слаб. ливневой дождь 9/8 840 м
[Cu med, cong]
+6.8 +2.5 74 +3 +3 тепло 1018.0 1010.7
З 7 40 км в посл. час ливневой дождь 5/3 1000 м
[Cu hum Ac trans]
+6.5 +2.1 73 +2 +2 тепло 1018.0 1010.7
ЮЗ 5 40 км {ливн. осадки} 6/3 600 м
[Sc Ac trans]
+6.6 +2.2 73 +3 +3 тепло 1018.0 1010.7 +4.4 +8.2 0.1
ЮЗ 6 40 км 9/9 1080 м
[Sc]
+6.7 +2.0 72 +2 +2 тепло 1017.7 1010.4
ЮЗ 6 40 км 10/9 1000 м
[Sc]
+6.9 +2.2 72 +3 +3 тепло 1017.0 1009.7
ЮЗ 6 40 км 8/8 1000 м
[Sc]
+7.1 +1.9 69 +3 +3 тепло 1016.5 1009.2
ЮЗ 8-14
{14}
40 км 8/8 1500 м
[Sc]
+7.2 +1.6 68 +2 +2 тепло 1015.4 1008.1
ЮЗ 8 40 км 10/3 1050 м
[Sc As op]
+6.9 +1.7 69 +2 +2 тепло 1014.4 1007.1
ЮЗ 8 40 км в посл. час дождь 9/9 600 м
[Sc]
+7.0 +1.9 70 +2 +2 тепло 1013.2 1005.9 0.0
ЮЗ 7-12
{13}
40 км в посл. час дождь 10/9 960 м
[Sc]
+7.0 +2.0 70 +2 +2 тепло 1012.4 1005.1
ЮЗ 6 45 км 9/9 840 м
[Sc]
+7.1 +2.1 70 +3 +3 тепло 1011.4 1004.1
ЮЗ 6 45 км слаб. дождь 10/9 840 м
[Sc]
+6.9 +2.6 74 +3 +3 тепло 1010.1 1002.8 0.0
ЮЗ 6 15 км слаб. дождь 10/5 400 м
[Sc As op]
+5.3 +2.8 84 0 0 тепло 1010.0 1002.7
З 5 30 км слаб. дождь 10/1 330 м
[Frnb As op]
+4.2 +2.8 91 -1 -1 тепло 1010.2 1002.9
З 5 40 км слаб. дождь 10/4 300 м
[Sc As op]
+4.1 +2.9 92 -1 -1 по сезону 1010.3 1003.0 +4.0 +7.3 3
З 5 40 км слаб. дождь 10/5 360 м
[Frnb As op]
+4.3 +3.1 92 -1 -1 тепло 1011.0 1003.7
З 6 45 км в посл. час дождь 10/3 450 м
[Cu hum Ac As Cc]
+4.8 +2.9 87 -0 -0 тепло 1011.9 1004.6
З 8 40 км {дождь} 9/5 480 м
[Cu med, cong Ac trans Ci fib]
+5.2 +2.5 83 -1 -1 по сезону 1012.6 1005.3 0.0
З 8-13
{15}
35 км в посл. час ливневой дождь 9/9 750 м
[Cu med, cong]
+5.7 +1.7 75 0 0 тепло 1014.1 1006.8
З 8 25 км в посл. час ливневой дождь 9/9 330 м
[Cu med, cong Ac As]
+5.9 +1.9 75 +1 +1 по сезону 1014.4 1007.1 0.0
Местоположение метеостанции Ганновер (Германия): широта 52.47 долгота 9.70 высота над уровнем моря 55 м.
В архиве по умолчанию представлена погода в Ганновере за последнюю неделю. Архивные данные за месяц целиком и за предыдущие месяцы, начиная с января 2011 года, Вы можете получить, выбрав интересующий диапазон дат из раскрывающегося списка и нажав кнопку "Найти!".
*Определитесь, кто Вы:
Внимание! Время в таблицах - всемирное. Для получения местного времени необходимо прибавить поправку, которая равна 1 ч.
Смотрите также архив погоды в соседних городах и на ближайших метеорологических станциях:
Партнеры нашего сайта:      
Пояснения к столбцам:
  • Ветер - указаны скорость ветра в м/с - средняя за 10 мин, порывы в срок и между сроками (в фигурных скобках) и направление, откуда дует ветер: С - северный,
  • СВ - северо-восточный, В - восточный, ЮВ - юго-восточный, Ю - южный, ЮЗ - юго-западный, З - западный, СЗ - северо-западный.
  • Видимость - горизонтальная дальность видимости в метрах или километрах. При видимости от 1 до 10 км при отсутствии осадков обычно наблюдается дымка, при ухудшении видимости до 1 км и менее - туман. В сухую погоду видимость может ухудшаться дымом, пылью или мглою.
  • Явления - указаны атмосферные явления, наблюдавшиеся в срок или в последний час перед сроком; фигурными скобками обозначены явления, наблюдавшиеся между сроками (за 1-3 часа до срока); квадратными скобками обозначены град или гололедные отложения с указанием их диаметра в мм.
  • Облачность - указаны через наклонную черту общая и нижняя облачность в баллах и высота нижней границы облаков в метрах; квадратными скобками обозначены формы облаков: Ci - перистые, Cs - перисто-слоистые, Cc - перисто-кучевые, Ac - высококучевые, As - высокослоистые, Sc - слоисто-кучевые, Ns - слоисто-дождевые, Cu - кучевые, Cb - кучево-дождевые. Подробнее классификацию облаков см. в Атласе облаков (PDF).
  • T - Температура воздуха - температура, измеренная на высоте 2 м над землей.
  • Td - Температура точки росы - температура, при понижении до которой содержащийся в воздухе водяной пар достигнет насыщения.
  • f - Относительная влажность воздуха - влажноcть воздуха, измеренная на высоте 2 м над землей.
  • Te - Эффективная температура - температура, которую ощущает одетый по сезону человек в тени. Характеристика душности погоды. При расчете учитывается влияние влажности воздуха и скорости ветра на теплоощущения человека.
  • Tes - Эффективная температура на солнце - температура, которую ощущает человек, с поправкой на солнечный нагрев. Характеристика знойности погоды. Зависит от высоты солнца над горизонтом, облачности и скорости ветра. Ночью, в пасмурную погоду, а также при ветре 12 м/с и более поправка равна нулю.
  • P - Атмосферное давление - приведенное к уровню моря атмосферное давление.
  • Po - Атмосферное давление - измеренное на уровне метеостанции атмосферное давление.
  • Tmin - Минимальная температура - минимум температуры воздуха на высоте 2 м над землей.
  • Tmax - Максимальная температура - максимум температуры воздуха на высоте 2 м над землей.
  • R - Количество осадков - Количество выпавших осадков за период времени, мм. При наведении курсора мыши на число - период времени, за который выпало указанное количество осадков.
  • R24 - Количество осадков - Количество выпавших осадков за 24 часа, мм.
  • S - Снежный покров - Высота снежного покрова, см. При наведении курсора мыши на число - состояние снежного покрова и степень покрытия местности в баллах.